,,Stat6,,Stat2,,Stat8,,Stat9,,Stat10,,Wind1,,Wind1,
time,status,PA1M_AVG,status,PR1M_SUM,status,RH1M_AVG,status,SR1M_AVG,status,TA1M_AVG,status,W1dAve1m,status,W1sAve1m,
2007-09-19, 00:00:00,VALID,917.243,VALID,0,VALID,100,VALID,-0.0509425,VALID,20.7926,VALID,40,VALID,1.17369,
2007-09-19, 00:01:00,VALID,917.243,VALID,0,VALID,100,VALID,-0.101885,VALID,20.7829,VALID,40,VALID,1.13876,
2007-09-19, 00:02:00,VALID,917.206,VALID,0,VALID,100,VALID,-0.0509425,VALID,20.7926,VALID,44,VALID,1.09434,
2007-09-19, 00:03:00,VALID,917.198,VALID,0,VALID,100,VALID,-0.0679233,VALID,20.7894,VALID,35,VALID,1.13125,
2007-09-19, 00:04:00,VALID,917.175,VALID,0,VALID,100,VALID,-0.0169808,VALID,20.7667,VALID,38,VALID,1.12809,
2007-09-19, 00:05:00,VALID,917.156,VALID,0,VALID,100,VALID,-0.0509425,VALID,20.7367,VALID,38,VALID,0.654474,
2007-09-19, 00:06:00,VALID,917.143,VALID,0.2,VALID,100,VALID,0,VALID,20.731,VALID,36,VALID,0.960565,
2007-09-19, 00:07:00,VALID,917.135,VALID,0,VALID,100,VALID,0.0169808,VALID,20.7291,VALID,39,VALID,0.967607,
2007-09-19, 00:08:00,VALID,917.118,VALID,0,VALID,100,VALID,0.0509425,VALID,20.7156,VALID,44,VALID,0.781441,
2007-09-19, 00:09:00,VALID,917.111,VALID,0,VALID,100,VALID,0.0849042,VALID,20.6645,VALID,26,VALID,1.09502,
2007-09-19, 00:10:00,VALID,917.086,VALID,0,VALID,100,VALID,0.0509425,VALID,20.6315,VALID,31,VALID,0.726172,
2007-09-19, 00:11:00,VALID,917.08,VALID,0,VALID,100,VALID,0.0849042,VALID,20.6545,VALID,30,VALID,0.111421,
2007-09-19, 00:12:00,VALID,917.058,VALID,0,VALID,100,VALID,0.0679233,VALID,20.668,VALID,30,VALID,0.000545058,
2007-09-19, 00:13:00,VALID,917.033,VALID,0,VALID,100,VALID,0.0849042,VALID,20.648,VALID,30,VALID,0.00053267,
2007-09-19, 00:14:00,VALID,917.018,VALID,0,VALID,100,VALID,0.0509425,VALID,20.6315,VALID,30,VALID,0,
2007-09-19, 00:15:00,VALID,916.986,VALID,0,VALID,100,VALID,0.0849042,VALID,20.6453,VALID,30,VALID,0.135231,
2007-09-19, 00:16:00,VALID,916.968,VALID,0,VALID,100,VALID,0.0509425,VALID,20.6415,VALID,30,VALID,0.390625,
2007-09-19, 00:17:00,VALID,916.975,VALID,0,VALID,100,VALID,0.0339617,VALID,20.6445,VALID,30,VALID,0.498728,
2007-09-19, 00:18:00,VALID,916.971,VALID,0,VALID,100,VALID,0.0339617,VALID,20.7002,VALID,19,VALID,0.593564,
2007-09-19, 00:19:00,VALID,916.967,VALID,0,VALID,100,VALID,0.0169808,VALID,20.6972,VALID,322,VALID,0.0330078,
2007-09-19, 00:20:00,VALID,916.984,VALID,0,VALID,100,VALID,0.0169808,VALID,20.681,VALID,322,VALID,0.0355114,
2007-09-19, 00:21:00,VALID,916.979,VALID,0,VALID,100,VALID,0.0849042,VALID,20.6378,VALID,322,VALID,0.115337,
2007-09-19, 00:22:00,VALID,916.994,VALID,0,VALID,100,VALID,0.0679233,VALID,20.6413,VALID,353,VALID,0.478981,
2007-09-19, 00:23:00,VALID,916.987,VALID,0,VALID,100,VALID,0.0509425,VALID,20.6545,VALID,40,VALID,0.471227,
2007-09-19, 00:24:00,VALID,916.968,VALID,0,VALID,100,VALID,0.101885,VALID,20.6577,VALID,40,VALID,0.0264137,
2007-09-19, 00:25:00,VALID,916.95,VALID,0,VALID,100,VALID,0.0679233,VALID,20.6742,VALID,40,VALID,0.0499637,
2007-09-19, 00:26:00,VALID,916.91,VALID,0,VALID,100,VALID,0.0339617,VALID,20.6802,VALID,38,VALID,0.73971,
2007-09-19, 00:27:00,VALID,916.905,VALID,0,VALID,100,VALID,0.0339617,VALID,20.6907,VALID,25,VALID,0.567522,
2007-09-19, 00:28:00,VALID,916.89,VALID,0,VALID,100,VALID,0.0339617,VALID,20.6872,VALID,25,VALID,0.411156,
2007-09-19, 00:29:00,VALID,916.888,VALID,0,VALID,100,VALID,0.0679233,VALID,20.687,VALID,26,VALID,0.410061,
2007-09-19, 00:30:00,VALID,916.873,VALID,0,VALID,100,VALID,0.0339617,VALID,20.7067,VALID,24,VALID,0.0119913,
2007-09-19, 00:31:00,VALID,916.89,VALID,0,VALID,100,VALID,0.0169808,VALID,20.6907,VALID,24,VALID,0.129261,
2007-09-19, 00:32:00,VALID,916.887,VALID,0,VALID,100,VALID,0.0509425,VALID,20.6745,VALID,28,VALID,0.11942,
2007-09-19, 00:33:00,VALID,916.874,VALID,0,VALID,100,VALID,0,VALID,20.6353,VALID,268,VALID,0.529576,
2007-09-19, 00:34:00,VALID,916.866,VALID,0,VALID,100,VALID,0.0509425,VALID,20.6188,VALID,237,VALID,0.181424,
2007-09-19, 00:35:00,VALID,916.851,VALID,0,VALID,100,VALID,0.0339617,VALID,20.6193,VALID,288,VALID,0.305069,
2007-09-19, 00:36:00,VALID,916.833,VALID,0,VALID,100,VALID,0.0679233,VALID,20.6096,VALID,330,VALID,0.547053,
2007-09-19, 00:37:00,VALID,916.834,VALID,0,VALID,100,VALID,-0.0679233,VALID,20.6371,VALID,359,VALID,0.349077,
2007-09-19, 00:38:00,VALID,916.831,VALID,0,VALID,100,VALID,-0.0849042,VALID,20.6366,VALID,359,VALID,0.00799006,
2007-09-19, 00:39:00,VALID,916.808,VALID,0,VALID,100,VALID,-0.0849042,VALID,20.6471,VALID,359,VALID,0.0849848,
2007-09-19, 00:40:00,VALID,916.803,VALID,0,VALID,100,VALID,-0.0849042,VALID,20.6174,VALID,359,VALID,0.140443,
2007-09-19, 00:41:00,VALID,916.791,VALID,0,VALID,100,VALID,-0.101885,VALID,20.6014,VALID,359,VALID,0.000181686,
2007-09-19, 00:42:00,VALID,916.788,VALID,0,VALID,100,VALID,-0.0849042,VALID,20.5982,VALID,359,VALID,0.158482,
2007-09-19, 00:43:00,VALID,916.767,VALID,0,VALID,100,VALID,-0.0509425,VALID,20.5784,VALID,359,VALID,0.0660342,
2007-09-19, 00:44:00,VALID,916.762,VALID,0,VALID,100,VALID,-0.0679233,VALID,20.5617,VALID,359,VALID,0.0505952,
2007-09-19, 00:45:00,VALID,916.752,VALID,0,VALID,100,VALID,-0.101885,VALID,20.5492,VALID,359,VALID,0,
2007-09-19, 00:46:00,VALID,916.749,VALID,0,VALID,100,VALID,-0.0849042,VALID,20.5425,VALID,359,VALID,0,
2007-09-19, 00:47:00,VALID,916.731,VALID,0,VALID,100,VALID,-0.0679233,VALID,20.559,VALID,360,VALID,0,
2007-09-19, 00:48:00,VALID,916.725,VALID,0,VALID,100,VALID,-0.101885,VALID,20.569,VALID,8,VALID,0,
2007-09-19, 00:49:00,VALID,916.707,VALID,0,VALID,100,VALID,-0.0849042,VALID,20.5719,VALID,8,VALID,0,
2007-09-19, 00:50:00,VALID,916.68,VALID,0,VALID,100,VALID,-0.0849042,VALID,20.5722,VALID,8,VALID,0,
2007-09-19, 00:51:00,VALID,916.633,VALID,0,VALID,100,VALID,-0.0849042,VALID,20.5852,VALID,9,VALID,0,
2007-09-19, 00:52:00,VALID,916.607,VALID,0,VALID,100,VALID,0.0169808,VALID,20.5739,VALID,10,VALID,0,
2007-09-19, 00:53:00,VALID,916.603,VALID,0,VALID,100,VALID,0.0169808,VALID,20.5739,VALID,10,VALID,0,
2007-09-19, 00:54:00,VALID,916.605,VALID,0,VALID,100,VALID,0.0339617,VALID,20.5901,VALID,10,VALID,0,
2007-09-19, 00:55:00,VALID,916.615,VALID,0,VALID,100,VALID,-0.0169808,VALID,20.5901,VALID,10,VALID,0,
2007-09-19, 00:56:00,VALID,916.628,VALID,0,VALID,100,VALID,0.0169808,VALID,20.5939,VALID,10,VALID,0,
2007-09-19, 00:57:00,VALID,916.643,VALID,0,VALID,100,VALID,0,VALID,20.5931,VALID,10,VALID,0,
2007-09-19, 00:58:00,VALID,916.647,VALID,0,VALID,100,VALID,0.0169808,VALID,20.5739,VALID,10,VALID,0,
2007-09-19, 00:59:00,VALID,916.654,VALID,0,VALID,100,VALID,0,VALID,20.5674,VALID,7,VALID,0,
2007-09-19, 01:00:00,VALID,916.657,VALID,0,VALID,100,VALID,0.0339617,VALID,20.5414,VALID,255,VALID,0,
2007-09-19, 01:01:00,VALID,916.648,VALID,0,VALID,100,VALID,0,VALID,20.535,VALID,226,VALID,0,
2007-09-19, 01:02:00,VALID,916.627,VALID,0,VALID,100,VALID,0.0509425,VALID,20.5185,VALID,226,VALID,0,
2007-09-19, 01:03:00,VALID,916.599,VALID,0,VALID,100,VALID,0.0169808,VALID,20.535,VALID,226,VALID,0,
2007-09-19, 01:04:00,VALID,916.594,VALID,0,VALID,100,VALID,0.0169808,VALID,20.5739,VALID,226,VALID,0,
2007-09-19, 01:05:00,VALID,916.562,VALID,0,VALID,100,VALID,0.0339617,VALID,20.5734,VALID,272,VALID,0,
2007-09-19, 01:06:00,VALID,916.557,VALID,0,VALID,100,VALID,0.0679233,VALID,20.5671,VALID,344,VALID,0,
2007-09-19, 01:07:00,VALID,916.534,VALID,0,VALID,100,VALID,-0.0339617,VALID,20.5655,VALID,32,VALID,0.869004,
2007-09-19, 01:08:00,VALID,916.544,VALID,0,VALID,100,VALID,-0.0679233,VALID,20.5787,VALID,32,VALID,1.24379,
2007-09-19, 01:09:00,VALID,916.541,VALID,0,VALID,100,VALID,-0.101885,VALID,20.556,VALID,25,VALID,0.997159,
2007-09-19, 01:10:00,VALID,916.529,VALID,0,VALID,100,VALID,-0.101885,VALID,20.5465,VALID,23,VALID,1.16082,
2007-09-19, 01:11:00,VALID,916.52,VALID,0,VALID,100,VALID,-0.0849042,VALID,20.5365,VALID,19,VALID,0.943004,
2007-09-19, 01:12:00,VALID,916.518,VALID,0,VALID,100,VALID,-0.0679233,VALID,20.5176,VALID,25,VALID,0.798692,
2007-09-19, 01:13:00,VALID,916.517,VALID,0,VALID,100,VALID,-0.0679233,VALID,20.5038,VALID,33,VALID,0.787348,
2007-09-19, 01:14:00,VALID,916.509,VALID,0,VALID,100,VALID,-0.101885,VALID,20.5006,VALID,20,VALID,0.761628,
2007-09-19, 01:15:00,VALID,916.52,VALID,0,VALID,100,VALID,-0.101885,VALID,20.4908,VALID,358,VALID,0.550495,
2007-09-19, 01:16:00,VALID,916.542,VALID,0,VALID,100,VALID,-0.0849042,VALID,20.4878,VALID,22,VALID,0.592226,
2007-09-19, 01:17:00,VALID,916.559,VALID,0,VALID,100,VALID,-0.0849042,VALID,20.5173,VALID,25,VALID,0.429688,
2007-09-19, 01:18:00,VALID,916.57,VALID,0,VALID,100,VALID,-0.101885,VALID,20.51,VALID,40,VALID,0.728468,
2007-09-19, 01:19:00,VALID,916.584,VALID,0,VALID,100,VALID,-0.0509425,VALID,20.4908,VALID,43,VALID,0.831936,
2007-09-19, 01:20:00,VALID,916.563,VALID,0,VALID,100,VALID,-0.0679233,VALID,20.4616,VALID,42,VALID,0.840426,
2007-09-19, 01:21:00,VALID,916.559,VALID,0,VALID,100,VALID,-0.0679233,VALID,20.4451,VALID,41,VALID,0.820313,
2007-09-19, 01:22:00,VALID,916.547,VALID,0,VALID,100,VALID,-0.0679233,VALID,20.4424,VALID,35,VALID,0.762784,
2007-09-19, 01:23:00,VALID,916.539,VALID,0,VALID,100,VALID,-0.0679233,VALID,20.4584,VALID,32,VALID,0.779726,
2007-09-19, 01:24:00,VALID,916.511,VALID,0,VALID,100,VALID,-0.0339617,VALID,20.4716,VALID,23,VALID,0.815168,
2007-09-19, 01:25:00,VALID,916.505,VALID,0,VALID,100,VALID,-0.101885,VALID,20.4424,VALID,28,VALID,0.803472,
2007-09-19, 01:26:00,VALID,916.49,VALID,0,VALID,100,VALID,-0.0849042,VALID,20.4489,VALID,25,VALID,0.961124,
2007-09-19, 01:27:00,VALID,916.47,VALID,0,VALID,100,VALID,-0.0679233,VALID,20.4127,VALID,28,VALID,0.929883,
2007-09-19, 01:28:00,VALID,916.463,VALID,0,VALID,100,VALID,-0.0849042,VALID,20.4099,VALID,25,VALID,0.768945,
2007-09-19, 01:29:00,VALID,916.442,VALID,0,VALID,100,VALID,-0.0679233,VALID,20.4067,VALID,37,VALID,0.570499,
2007-09-19, 01:30:00,VALID,916.419,VALID,0,VALID,100,VALID,-0.0679233,VALID,20.4099,VALID,37,VALID,0.629724,
2007-09-19, 01:31:00,VALID,916.404,VALID,0,VALID,100,VALID,-0.0339617,VALID,20.4197,VALID,41,VALID,0.523819,
2007-09-19, 01:32:00,VALID,916.393,VALID,0,VALID,100,VALID,-0.0849042,VALID,20.4132,VALID,47,VALID,0.633765,
2007-09-19, 01:33:00,VALID,916.361,VALID,0,VALID,100,VALID,-0.118866,VALID,20.4164,VALID,26,VALID,0.68641,
2007-09-19, 01:34:00,VALID,916.353,VALID,0,VALID,100,VALID,-0.0849042,VALID,20.4262,VALID,33,VALID,0.553013,
2007-09-19, 01:35:00,VALID,916.327,VALID,0,VALID,100,VALID,-0.118866,VALID,20.4359,VALID,50,VALID,0.637649,
2007-09-19, 01:36:00,VALID,916.293,VALID,0,VALID,100,VALID,-0.0679233,VALID,20.3935,VALID,35,VALID,1.04364,
2007-09-19, 01:37:00,VALID,916.261,VALID,0,VALID,100,VALID,-0.0849042,VALID,20.3707,VALID,37,VALID,1.15643,
2007-09-19, 01:38:00,VALID,916.248,VALID,0,VALID,100,VALID,-0.0509425,VALID,20.358,VALID,45,VALID,0.98125,
2007-09-19, 01:39:00,VALID,916.219,VALID,0,VALID,100,VALID,-0.101885,VALID,20.3418,VALID,43,VALID,1.09524,
2007-09-19, 01:40:00,VALID,916.202,VALID,0,VALID,100,VALID,-0.0679233,VALID,20.3283,VALID,46,VALID,0.629179,
2007-09-19, 01:41:00,VALID,916.184,VALID,0,VALID,100,VALID,-0.0509425,VALID,20.3383,VALID,31,VALID,0.29173,
2007-09-19, 01:42:00,VALID,916.177,VALID,0,VALID,100,VALID,-0.0849042,VALID,20.3256,VALID,31,VALID,0.00555099,
2007-09-19, 01:43:00,VALID,916.17,VALID,0,VALID,100,VALID,-0.0849042,VALID,20.3288,VALID,31,VALID,0.215298,
2007-09-19, 01:44:00,VALID,916.169,VALID,0,VALID,100,VALID,-0.0849042,VALID,20.3283,VALID,30,VALID,0.256836,
2007-09-19, 01:45:00,VALID,916.164,VALID,0,VALID,100,VALID,-0.101885,VALID,20.3418,VALID,26,VALID,0.197599,
2007-09-19, 01:46:00,VALID,916.161,VALID,0,VALID,100,VALID,-0.0679233,VALID,20.3448,VALID,26,VALID,0.00878906,
2007-09-19, 01:47:00,VALID,916.156,VALID,0,VALID,100,VALID,0.0169808,VALID,20.34,VALID,26,VALID,0,
2007-09-19, 01:48:00,VALID,916.16,VALID,0,VALID,100,VALID,0.0339617,VALID,20.333,VALID,26,VALID,0,
2007-09-19, 01:49:00,VALID,916.168,VALID,0,VALID,100,VALID,0.0849042,VALID,20.3402,VALID,26,VALID,0.0222222,
2007-09-19, 01:50:00,VALID,916.163,VALID,0,VALID,100,VALID,0.0509425,VALID,20.3522,VALID,26,VALID,0.387962,
2007-09-19, 01:51:00,VALID,916.154,VALID,0,VALID,100,VALID,0,VALID,20.3857,VALID,26,VALID,0.515234,
2007-09-19, 01:52:00,VALID,916.148,VALID,0,VALID,100,VALID,-0.0339617,VALID,20.3937,VALID,25,VALID,0.488917,
2007-09-19, 01:53:00,VALID,916.141,VALID,0,VALID,100,VALID,-0.0509425,VALID,20.3675,VALID,24,VALID,0.419457,
2007-09-19, 01:54:00,VALID,916.132,VALID,0,VALID,100,VALID,-0.0339617,VALID,20.341,VALID,24,VALID,0.177507,
2007-09-19, 01:55:00,VALID,916.12,VALID,0,VALID,100,VALID,-0.0679233,VALID,20.3445,VALID,24,VALID,0.218205,
2007-09-19, 01:56:00,VALID,916.114,VALID,0,VALID,100,VALID,-0.0339617,VALID,20.3313,VALID,15,VALID,0.332667,
2007-09-19, 01:57:00,VALID,916.129,VALID,0,VALID,100,VALID,0,VALID,20.328,VALID,1,VALID,0.391369,
2007-09-19, 01:58:00,VALID,916.128,VALID,0,VALID,100,VALID,-0.0509425,VALID,20.3216,VALID,1,VALID,0.502287,
2007-09-19, 01:59:00,VALID,916.128,VALID,0,VALID,100,VALID,-0.0679233,VALID,20.3023,VALID,1,VALID,0.399554,
2007-09-19, 02:00:00,VALID,916.141,VALID,0,VALID,100,VALID,-0.0339617,VALID,20.3026,VALID,1,VALID,0.312686,
2007-09-19, 02:01:00,VALID,916.159,VALID,0,VALID,100,VALID,-0.0339617,VALID,20.3018,VALID,12,VALID,0.635653,
2007-09-19, 02:02:00,VALID,916.183,VALID,0,VALID,100,VALID,-0.0169808,VALID,20.2891,VALID,15,VALID,0.155107,
2007-09-19, 02:03:00,VALID,916.182,VALID,0,VALID,100,VALID,-0.0679233,VALID,20.2696,VALID,15,VALID,0.0299782,
2007-09-19, 02:04:00,VALID,916.195,VALID,0,VALID,100,VALID,-0.0339617,VALID,20.2664,VALID,15,VALID,0,
2007-09-19, 02:05:00,VALID,916.203,VALID,0,VALID,100,VALID,-0.0509425,VALID,20.2826,VALID,15,VALID,0,
2007-09-19, 02:06:00,VALID,916.209,VALID,0,VALID,100,VALID,-0.0509425,VALID,20.2853,VALID,15,VALID,0,
2007-09-19, 02:07:00,VALID,916.215,VALID,0,VALID,100,VALID,-0.0679233,VALID,20.2986,VALID,15,VALID,0,
2007-09-19, 02:08:00,VALID,916.226,VALID,0,VALID,100,VALID,-0.0679233,VALID,20.2986,VALID,15,VALID,0,
2007-09-19, 02:09:00,VALID,916.208,VALID,0,VALID,100,VALID,-0.0509425,VALID,20.3051,VALID,15,VALID,0,
2007-09-19, 02:10:00,VALID,916.204,VALID,0,VALID,100,VALID,-0.0679233,VALID,20.3256,VALID,15,VALID,0,
2007-09-19, 02:11:00,VALID,916.198,VALID,0,VALID,100,VALID,-0.0679233,VALID,20.3056,VALID,15,VALID,0,
2007-09-19, 02:12:00,VALID,916.195,VALID,0,VALID,100,VALID,-0.0509425,VALID,20.3186,VALID,15,VALID,0,
2007-09-19, 02:13:00,VALID,916.178,VALID,0,VALID,100,VALID,-0.0849042,VALID,20.3251,VALID,15,VALID,0.268714,
2007-09-19, 02:14:00,VALID,916.188,VALID,0,VALID,100,VALID,-0.0509425,VALID,20.3126,VALID,15,VALID,0.253811,
2007-09-19, 02:15:00,VALID,916.181,VALID,0,VALID,100,VALID,-0.0679233,VALID,20.2991,VALID,16,VALID,0.432528,
2007-09-19, 02:16:00,VALID,916.169,VALID,0.2,VALID,100,VALID,-0.101885,VALID,20.3126,VALID,18,VALID,0.569382,
2007-09-19, 02:17:00,VALID,916.153,VALID,0,VALID,100,VALID,-0.0849042,VALID,20.3056,VALID,36,VALID,0.508539,
2007-09-19, 02:18:00,VALID,916.158,VALID,0,VALID,100,VALID,-0.0849042,VALID,20.3118,VALID,32,VALID,0.644804,
2007-09-19, 02:19:00,VALID,916.15,VALID,0,VALID,100,VALID,-0.0169808,VALID,20.3178,VALID,32,VALID,0.639353,
2007-09-19, 02:20:00,VALID,916.138,VALID,0,VALID,100,VALID,-0.0169808,VALID,20.328,VALID,23,VALID,0.689406,
2007-09-19, 02:21:00,VALID,916.139,VALID,0,VALID,100,VALID,-0.0509425,VALID,20.3188,VALID,29,VALID,0.734553,
2007-09-19, 02:22:00,VALID,916.14,VALID,0,VALID,100,VALID,0,VALID,20.3056,VALID,29,VALID,0.884766,
2007-09-19, 02:23:00,VALID,916.14,VALID,0,VALID,100,VALID,-0.0169808,VALID,20.2831,VALID,29,VALID,0.645419,
2007-09-19, 02:24:00,VALID,916.12,VALID,0,VALID,100,VALID,-0.0509425,VALID,20.2696,VALID,29,VALID,0.50266,
2007-09-19, 02:25:00,VALID,916.112,VALID,0,VALID,100,VALID,-0.0509425,VALID,20.2599,VALID,28,VALID,0.371466,
2007-09-19, 02:26:00,VALID,916.112,VALID,0,VALID,100,VALID,-0.0339617,VALID,20.2572,VALID,27,VALID,0.253729,
2007-09-19, 02:27:00,VALID,916.117,VALID,0,VALID,100,VALID,0,VALID,20.2399,VALID,19,VALID,0.498001,
2007-09-19, 02:28:00,VALID,916.111,VALID,0,VALID,100,VALID,-0.0509425,VALID,20.2172,VALID,23,VALID,0.655107,
2007-09-19, 02:29:00,VALID,916.107,VALID,0,VALID,100,VALID,-0.0339617,VALID,20.2272,VALID,14,VALID,0.659896,
2007-09-19, 02:30:00,VALID,916.09,VALID,0,VALID,100,VALID,0,VALID,20.2077,VALID,345,VALID,0.368096,
2007-09-19, 02:31:00,VALID,916.084,VALID,0,VALID,100,VALID,-0.0169808,VALID,20.214,VALID,347,VALID,0.490799,
2007-09-19, 02:32:00,VALID,916.07,VALID,0,VALID,100,VALID,0,VALID,20.2012,VALID,348,VALID,0.609375,
2007-09-19, 02:33:00,VALID,916.055,VALID,0,VALID,100,VALID,-0.0169808,VALID,20.198,VALID,9,VALID,0.760231,
2007-09-19, 02:34:00,VALID,916.054,VALID,0,VALID,100,VALID,-0.0339617,VALID,20.195,VALID,15,VALID,0.475038,
2007-09-19, 02:35:00,VALID,916.051,VALID,0,VALID,100,VALID,0,VALID,20.1785,VALID,13,VALID,0.545058,
2007-09-19, 02:36:00,VALID,916.05,VALID,0,VALID,100,VALID,-0.0339617,VALID,20.1828,VALID,13,VALID,0.408681,
2007-09-19, 02:37:00,VALID,916.059,VALID,0,VALID,100,VALID,-0.0169808,VALID,20.188,VALID,16,VALID,0.427326,
2007-09-19, 02:38:00,VALID,916.06,VALID,0,VALID,100,VALID,-0.0169808,VALID,20.1917,VALID,19,VALID,0.433036,
2007-09-19, 02:39:00,VALID,916.057,VALID,0.2,VALID,100,VALID,-0.0169808,VALID,20.2115,VALID,19,VALID,0.249809,
2007-09-19, 02:40:00,VALID,916.059,VALID,0,VALID,100,VALID,-0.0169808,VALID,20.208,VALID,20,VALID,0.00253906,
2007-09-19, 02:41:00,VALID,916.036,VALID,0,VALID,100,VALID,-0.0339617,VALID,20.2075,VALID,20,VALID,0,
2007-09-19, 02:42:00,VALID,916.02,VALID,0,VALID,100,VALID,-0.0169808,VALID,20.2142,VALID,20,VALID,0,
2007-09-19, 02:43:00,VALID,916.018,VALID,0,VALID,100,VALID,-0.0509425,VALID,20.2247,VALID,20,VALID,0.0136719,
2007-09-19, 02:44:00,VALID,915.993,VALID,0,VALID,100,VALID,-0.0679233,VALID,20.2117,VALID,20,VALID,0,
2007-09-19, 02:45:00,VALID,915.972,VALID,0,VALID,100,VALID,0,VALID,20.2017,VALID,20,VALID,0.195676,
2007-09-19, 02:46:00,VALID,915.969,VALID,0,VALID,100,VALID,-0.0339617,VALID,20.1885,VALID,20,VALID,0.416319,
2007-09-19, 02:47:00,VALID,915.96,VALID,0,VALID,100,VALID,0,VALID,20.1553,VALID,20,VALID,0.435501,
2007-09-19, 02:48:00,VALID,915.972,VALID,0,VALID,100,VALID,-0.0169808,VALID,20.1461,VALID,33,VALID,0.447917,
2007-09-19, 02:49:00,VALID,915.956,VALID,0,VALID,100,VALID,-0.0339617,VALID,20.1301,VALID,53,VALID,0.470424,
2007-09-19, 02:50:00,VALID,915.953,VALID,0,VALID,100,VALID,-0.0339617,VALID,20.1336,VALID,75,VALID,0.286882,
2007-09-19, 02:51:00,VALID,915.936,VALID,0,VALID,100,VALID,-0.0679233,VALID,20.1298,VALID,78,VALID,0.410496,
2007-09-19, 02:52:00,VALID,915.911,VALID,0,VALID,100,VALID,-0.0679233,VALID,20.1309,VALID,78,VALID,0.305208,
2007-09-19, 02:53:00,VALID,915.904,VALID,0,VALID,100,VALID,-0.0509425,VALID,20.1209,VALID,78,VALID,0.107701,
2007-09-19, 02:54:00,VALID,915.877,VALID,0,VALID,100,VALID,-0.0679233,VALID,20.1176,VALID,78,VALID,0,
2007-09-19, 02:55:00,VALID,915.862,VALID,0,VALID,100,VALID,-0.0509425,VALID,20.1176,VALID,78,VALID,0,
2007-09-19, 02:56:00,VALID,915.843,VALID,0,VALID,100,VALID,-0.0679233,VALID,20.1309,VALID,78,VALID,0,
2007-09-19, 02:57:00,VALID,915.833,VALID,0,VALID,100,VALID,-0.0509425,VALID,20.1501,VALID,78,VALID,0.0104167,
2007-09-19, 02:58:00,VALID,915.821,VALID,0,VALID,100,VALID,-0.0849042,VALID,20.1728,VALID,40,VALID,0.713246,
2007-09-19, 02:59:00,VALID,915.813,VALID,0,VALID,100,VALID,-0.0509425,VALID,20.1763,VALID,37,VALID,0.7,
2007-09-19, 03:00:00,VALID,915.833,VALID,0,VALID,100,VALID,-0.0169808,VALID,20.1498,VALID,43,VALID,0.757068,
2007-09-19, 03:01:00,VALID,915.843,VALID,0,VALID,100,VALID,-0.0679233,VALID,20.1666,VALID,42,VALID,0.526989,
2007-09-19, 03:02:00,VALID,915.846,VALID,0,VALID,100,VALID,-0.0169808,VALID,20.1536,VALID,42,VALID,0.473611,
2007-09-19, 03:03:00,VALID,915.86,VALID,0,VALID,100,VALID,-0.0509425,VALID,20.1331,VALID,42,VALID,0.402616,
2007-09-19, 03:04:00,VALID,915.872,VALID,0,VALID,100,VALID,-0.0169808,VALID,20.1328,VALID,42,VALID,0.191497,
2007-09-19, 03:05:00,VALID,915.887,VALID,0,VALID,100,VALID,-0.0339617,VALID,20.1466,VALID,42,VALID,0,
2007-09-19, 03:06:00,VALID,915.893,VALID,0,VALID,100,VALID,-0.0169808,VALID,20.1561,VALID,42,VALID,0,
2007-09-19, 03:07:00,VALID,915.894,VALID,0,VALID,100,VALID,-0.0339617,VALID,20.1496,VALID,42,VALID,0.0855741,
2007-09-19, 03:08:00,VALID,915.888,VALID,0,VALID,100,VALID,-0.0509425,VALID,20.1526,VALID,45,VALID,0.0735085,
2007-09-19, 03:09:00,VALID,915.89,VALID,0,VALID,100,VALID,-0.0339617,VALID,20.1585,VALID,111,VALID,0.551291,
2007-09-19, 03:10:00,VALID,915.883,VALID,0,VALID,100,VALID,-0.0169808,VALID,20.1555,VALID,115,VALID,0.680432,
2007-09-19, 03:11:00,VALID,915.876,VALID,0,VALID,100,VALID,0.0169808,VALID,20.1596,VALID,115,VALID,0.718568,
2007-09-19, 03:12:00,VALID,915.869,VALID,0,VALID,100,VALID,0,VALID,20.1561,VALID,115,VALID,0.52096,
2007-09-19, 03:13:00,VALID,915.873,VALID,0,VALID,100,VALID,0,VALID,20.1458,VALID,115,VALID,0.384549,
2007-09-19, 03:14:00,VALID,915.884,VALID,0,VALID,100,VALID,0,VALID,20.1393,VALID,115,VALID,0.228795,
2007-09-19, 03:15:00,VALID,915.871,VALID,0,VALID,100,VALID,0,VALID,20.1428,VALID,115,VALID,0.206641,
2007-09-19, 03:16:00,VALID,915.871,VALID,0,VALID,100,VALID,-0.0339617,VALID,20.1361,VALID,115,VALID,0.00539435,
2007-09-19, 03:17:00,VALID,915.858,VALID,0,VALID,100,VALID,-0.0169808,VALID,20.1491,VALID,115,VALID,0.00887784,
2007-09-19, 03:18:00,VALID,915.848,VALID,0,VALID,100,VALID,0,VALID,20.1623,VALID,115,VALID,0,
2007-09-19, 03:19:00,VALID,915.84,VALID,0,VALID,100,VALID,0,VALID,20.188,VALID,115,VALID,0,
2007-09-19, 03:20:00,VALID,915.831,VALID,0,VALID,100,VALID,-0.0169808,VALID,20.2007,VALID,115,VALID,0,
2007-09-19, 03:21:00,VALID,915.827,VALID,0,VALID,100,VALID,0.0169808,VALID,20.2137,VALID,115,VALID,0,
2007-09-19, 03:22:00,VALID,915.817,VALID,0,VALID,100,VALID,0,VALID,20.2429,VALID,115,VALID,0,
2007-09-19, 03:23:00,VALID,915.796,VALID,0,VALID,100,VALID,-0.0169808,VALID,20.2626,VALID,115,VALID,0,
2007-09-19, 03:24:00,VALID,915.785,VALID,0,VALID,100,VALID,-0.0339617,VALID,20.2591,VALID,115,VALID,0,
2007-09-19, 03:25:00,VALID,915.777,VALID,0,VALID,100,VALID,0,VALID,20.2696,VALID,115,VALID,0,
2007-09-19, 03:26:00,VALID,915.775,VALID,0,VALID,100,VALID,-0.0339617,VALID,20.2761,VALID,115,VALID,0,
2007-09-19, 03:27:00,VALID,915.778,VALID,0,VALID,100,VALID,-0.0339617,VALID,20.2496,VALID,115,VALID,0.0205305,
2007-09-19, 03:28:00,VALID,915.787,VALID,0,VALID,100,VALID,-0.0169808,VALID,20.2496,VALID,115,VALID,0.0078125,
2007-09-19, 03:29:00,VALID,915.79,VALID,0,VALID,100,VALID,-0.0339617,VALID,20.2469,VALID,115,VALID,0.155692,
2007-09-19, 03:30:00,VALID,915.8,VALID,0,VALID,100,VALID,-0.0679233,VALID,20.2439,VALID,115,VALID,0.0187137,
2007-09-19, 03:31:00,VALID,915.796,VALID,0,VALID,100,VALID,-0.0339617,VALID,20.2239,VALID,115,VALID,0.000177557,
2007-09-19, 03:32:00,VALID,915.781,VALID,0,VALID,100,VALID,-0.0849042,VALID,20.2115,VALID,115,VALID,0.146019,
2007-09-19, 03:33:00,VALID,915.775,VALID,0,VALID,100,VALID,-0.0339617,VALID,20.198,VALID,115,VALID,0.241642,
2007-09-19, 03:34:00,VALID,915.768,VALID,0,VALID,100,VALID,0,VALID,20.1688,VALID,115,VALID,0.0715278,
2007-09-19, 03:35:00,VALID,915.771,VALID,0,VALID,100,VALID,-0.0169808,VALID,20.1625,VALID,115,VALID,0,
2007-09-19, 03:36:00,VALID,915.774,VALID,0,VALID,100,VALID,-0.0339617,VALID,20.1625,VALID,115,VALID,0,
2007-09-19, 03:37:00,VALID,915.795,VALID,0,VALID,100,VALID,-0.0679233,VALID,20.1618,VALID,115,VALID,0,
2007-09-19, 03:38:00,VALID,915.806,VALID,0,VALID,100,VALID,-0.0169808,VALID,20.1912,VALID,115,VALID,0,
2007-09-19, 03:39:00,VALID,915.811,VALID,0,VALID,100,VALID,-0.0509425,VALID,20.1917,VALID,115,VALID,0,
2007-09-19, 03:40:00,VALID,915.797,VALID,0,VALID,100,VALID,0,VALID,20.1818,VALID,115,VALID,0,
2007-09-19, 03:41:00,VALID,915.784,VALID,0,VALID,100,VALID,-0.0169808,VALID,20.1853,VALID,115,VALID,0,
2007-09-19, 03:42:00,VALID,915.765,VALID,0,VALID,100,VALID,-0.0169808,VALID,20.1753,VALID,115,VALID,0,
2007-09-19, 03:43:00,VALID,915.737,VALID,0,VALID,100,VALID,-0.0339617,VALID,20.1655,VALID,115,VALID,0,